EW4229 Weather Reports


Display with metric or nautical units.
time (UTC)temp
F
wind
direction
speed
MPH
gust
MPH
rain 1hr
in
rain 24hr
in
rain mn
in
humidity
%
barometer
mb
20260831203118 80 92 0.0 5.0 0.00 0.00 0.00 79 1018.0
20260831201554 80 107 0.0 4.0 0.00 0.00 0.00 78 1018.0
20260831200055 79 134 1.0 3.0 0.00 0.00 0.00 76 1018.2
20260831194551 79 143 0.0 3.0 0.00 0.00 0.00 78 1018.2
20260831193053 80 135 0.0 4.0 0.00 0.00 0.00 76 1018.3
20260831191550 80 143 0.0 3.0 0.00 0.00 0.00 74 1018.5
20260831190111 80 92 0.0 1.0 0.00 0.00 0.00 73 1018.7
20260831184549 79 139 0.0 1.0 0.00 0.00 0.00 76 1018.9
20260831183047 79 134 0.0 1.0 0.00 0.00 0.00 77 1018.9
20260831181555 79 110 0.0 3.0 0.00 0.00 0.00 75 1018.9
20260831180044 79 121 0.0 1.0 0.00 0.00 0.00 73 1019.1
20260831174550 79 141 0.0 2.0 0.00 0.00 0.00 73 1019.1
20260831173042 79 310 0.0 3.0 0.00 0.00 0.00 72 1019.3
20260831171543 79 156 0.0 3.0 0.00 0.00 0.00 73 1019.3
20260831170041 79 150 0.0 3.0 0.00 0.00 0.00 74 1019.5
20260831164538 78 189 0.0 7.0 0.00 0.00 0.00 74 1019.6
20260831163036 79 87 1.0 4.0 0.00 0.00 0.00 73 1019.4
20260831161533 78 203 0.0 5.0 0.00 0.00 0.00 76 1019.4
20260831160042 77 135 0.0 3.0 0.00 0.00 0.00 78 1019.6
20260831154532 77 137 0.0 3.0 0.00 0.00 0.00 78 1019.7
20260831153051 0 0.0 0.0 0.00 0.00 0.00 1019.8
20260831151524 0 0.0 0.0 0.00 0.00 0.00 1019.8
20260831150022 0 0.0 0.0 0.00 0.00 0.00 1019.6
20260831144516 0 0.0 0.0 0.00 0.00 0.00 1019.9
20260831143012 0 29 0.0 0.0 0.00 0.00 0.00 1019.9
20260831141517 75 136 2.0 4.0 0.00 0.00 0.00 79 1020.3
20260831140010 75 124 1.0 3.0 0.00 0.00 0.00 79 1020.1
20260831134507 75 137 0.0 4.0 0.00 0.00 0.00 81 1020.1
20260831133003 0 0.0 0.0 0.00 0.00 0.00 1020.3
20260831131603 73 88 0.0 0.0 0.00 0.00 0.00 86 1020.1
20260831130119 73 95 0.0 0.0 0.00 0.00 0.00 86 1020.1
20260831124602 73 56 0.0 0.0 0.00 0.00 0.00 88 1019.9
20260831123057 72 290 0.0 0.0 0.00 0.00 0.00 90 1019.8
20260831121557 71 290 0.0 0.0 0.00 0.00 0.00 91 1019.8
20260831120142 71 8 0.0 0.0 0.00 0.00 0.00 91 1019.8
20260831114553 70 8 0.0 1.0 0.00 0.00 0.00 91 1019.8
20260831113057 70 9 0.0 1.0 0.00 0.00 0.00 92 1019.6
20260831111558 69 9 0.0 1.0 0.00 0.00 0.00 92 1019.5
20260831110049 69 9 0.0 0.0 0.00 0.00 0.00 92 1019.3
20260831104548 69 9 0.0 1.0 0.00 0.00 0.00 91 1019.1
20260831103050 69 9 0.0 0.0 0.00 0.00 0.00 92 1019.2
20260831101547 70 9 0.0 0.0 0.00 0.00 0.00 92 1018.9
20260831100050 69 294 0.0 0.0 0.00 0.00 0.00 94 1018.9
20260831094601 69 280 0.0 0.0 0.00 0.00 0.00 95 1018.9
20260831093045 0 0.0 0.0 0.00 0.00 0.00 1018.8
20260831091541 0 0.0 0.0 0.00 0.00 0.00 1018.7
20260831090038 0 0.0 0.0 0.00 0.00 0.00 1018.6
20260831084540 69 313 0.0 0.0 0.00 0.00 0.00 1018.4
20260831083029 0 0.0 0.0 0.00 0.00 0.00 1018.5
20260831081539 69 319 0.0 0.0 0.00 0.00 0.00 91 1018.3
20260831080029 69 250 0.0 0.0 0.00 0.00 0.00 92 1018.3
20260831074526 70 251 0.0 0.0 0.00 0.00 0.00 92 1018.3
20260831073026 70 252 0.0 0.0 0.00 0.00 0.00 92 1018.4
20260831071526 70 252 0.0 0.0 0.00 0.00 0.00 92 1018.4
20260831070026 71 252 0.0 0.0 0.00 0.00 0.00 91 1018.6
20260831064519 71 245 0.0 0.0 0.00 0.00 0.00 91 1018.7
20260831063018 71 245 0.0 0.0 0.00 0.00 0.00 1018.7
20260831061514 0 0.0 0.0 0.00 0.00 0.00 1018.8
20260831060008 0 0.0 0.0 0.00 0.00 0.00 1019.0
20260831054504 0 0.0 0.0 0.00 0.00 0.00 1019.0
20260831053105 0 0.0 0.0 0.00 0.00 0.00 1018.9
20260831051619 73 356 0.0 0.0 0.00 0.00 0.00 85 1018.9
20260831050056 73 356 0.0 0.0 0.00 0.00 0.00 85 1018.9
20260831044555 74 356 0.0 0.0 0.00 0.00 0.00 82 1018.9
20260831043050 74 356 0.0 1.0 0.00 0.00 0.00 81 1018.8
20260831041552 74 30 0.0 1.0 0.00 0.00 0.00 81 1018.6
20260831040052 75 82 0.0 2.0 0.00 0.00 0.00 80 1018.6
20260831034549 75 91 0.0 3.0 0.00 0.00 0.00 79 1018.9
20260831033050 76 308 0.0 1.0 0.00 0.00 0.00 79 1019.1
20260831031548 76 358 0.0 0.0 0.00 0.00 0.00 81 1019.2
20260831030046 76 326 0.0 1.0 0.00 0.00 0.00 79 1019.3
20260831024558 76 322 0.0 1.0 0.00 0.00 0.00 80 1019.2
20260831023045 76 326 0.0 1.0 0.00 0.00 0.00 80 1019.2
20260831021556 76 326 0.0 1.0 0.00 0.00 0.00 83 1019.2
20260831020045 76 357 1.0 4.0 0.00 0.00 0.00 84 1019.1
20260831014544 75 320 0.0 0.0 0.00 0.00 0.00 85 1019.1
20260831013044 76 320 0.0 0.0 0.00 0.00 0.00 84 1019.1
20260831011544 76 321 0.0 0.0 0.00 0.00 0.00 84 1018.9
20260831010117 76 321 0.0 0.0 0.00 0.00 0.00 83 1018.8
20260831004549 76 321 0.0 0.0 0.00 0.00 0.00 83 1018.5
20260831003043 76 321 0.0 0.0 0.00 0.00 0.00 83 1018.2
20260831001553 77 321 0.0 0.0 0.00 0.00 0.00 81 1017.8
20260831000043 76 290 0.0 0.0 0.00 0.00 0.00 84 1017.4
20260830234542 77 290 0.0 0.0 0.00 0.00 0.00 83 1017.6
20260830233042 78 290 0.0 0.0 0.00 0.00 0.00 80 1017.6
20260830231541 78 290 0.0 0.0 0.00 0.00 0.00 81 1017.7
20260830230049 79 285 0.0 0.0 0.00 0.00 0.00 85 1017.8
20260830224550 0 0.0 0.0 0.00 0.00 0.00 1017.8
20260830223042 0 0.0 0.0 0.00 0.00 0.00 1017.9
20260830221539 81 89 0.0 1.0 0.00 0.00 0.00 79 1017.7
20260830220138 81 88 0.0 1.0 0.00 0.00 0.00 78 1017.5
20260830214541 81 89 0.0 1.0 0.00 0.00 0.00 76 1017.4
20260830213035 0 0.0 0.0 0.00 0.00 0.00 1017.5
20260830211531 84 0.0 0.0 0.00 0.00 0.00 70 1017.4
20260830210031 85 323 0.0 2.0 0.00 0.00 0.00 68 1017.5
20260830204531 86 162 0.0 4.0 0.00 0.00 0.00 68 1017.4